sat.trackr.live / text

‹ back to catalog

GSAT0207 (GALILEO 15)

NORAD 41859 · 2016-069A

PAYLOAD ACTIVE UNKNOWN

§ Identity

Operator
Country
ESA
Launch date
2016-11-17
Launch site
FRGUI
Launch vehicle
Mass (kg)
RCS (m²)
18.36

Purposes: earth_obs, nav

External: N2YO · Heavens-Above · Gunter

§ Orbital elements

Epoch: 2026-09-19T18:32:24.902880Z

Period
844.70 min
Inclination
55.5593°
Eccentricity
0.0002822
Mean motion
1.70474001 rev/d
Perigee alt
23,213.8 km
Apogee alt
23,230.5 km
Semi-major
29,600.3 km
B*
0.0000e+0
RAAN
98.4673°
Arg perigee
1.3168°
Mean anomaly
358.7589°
Rev number
6,101

§ Raw data

GSAT0207 (GALILEO 15)1 41859U 16069A   26262.77251045  .00000026  00000+0  00000+0 0  99942 41859  55.5593  98.4673 0002822   1.3168 358.7589  1.70474001 61018

JSON: /api/v1/satellites/41859 · /tle

For live sub-satellite position, see the globe view (requires WebGL).

§ Visibility from observer

Set your observer location to see the next 7 days of passes ≥ 10°. The values pass through the URL so the page stays shareable.

No JS? Fill the form by hand. The geolocation button needs JavaScript.